Theta_e
292 290 292 293 297 301 303 303 304 305 307 308 308 308 307 306 306 305 305 307 306 305 304 303 301 301 299 298 297 296 295 293 292 292 291 290 289 289 289 288 286 286 285 286 285 285 285 285 285 285 285 285 286 284 284 283 282 284 283 283 283 284
290 290 291 292 295 298 300 302 304 304 304 305 305 303 303 303 304 304 303 302 302 300 300 300 299 298 297 296 295 294 292 292 291 290 289 289 288 287 286 285 285 285 285 284 284 284 284 285 284 283 283 283 283 283 284 283 283 284 283 283 282 283
289 289 289 289 289 293 298 301 303 303 302 303 303 303 302 302 302 302 300 300 299 299 298 297 296 295 295 293 292 292 291 290 290 289 287 285 285 285 285 285 285 285 284 285 284 285 284 284 283 282 282 283 283 283 283 284 284 285 283 283 283 282
288 288 287 287 288 292 296 298 300 300 301 301 301 301 301 300 299 299 298 298 298 298 296 295 294 293 292 291 290 289 288 287 287 285 285 286 283 284 285 285 283 283 284 285 284 284 283 283 283 282 283 284 284 284 284 284 284 284 284 282 283 283
288 288 289 289 290 291 292 294 298 299 299 298 298 300 298 299 298 297 297 296 295 294 293 291 289 288 288 288 287 287 286 286 285 285 286 285 284 282 284 284 284 284 284 284 283 283 283 283 283 282 283 283 284 284 283 283 283 283 283 283 283 283
286 288 288 289 289 289 291 294 295 296 296 297 296 296 294 294 294 294 294 293 291 290 289 288 287 287 287 287 287 286 285 285 285 284 285 284 284 284 282 283 283 283 283 283 283 283 283 283 283 283 282 283 283 283 283 283 282 282 282 282 283 282
287 290 290 290 289 288 289 290 292 292 293 292 293 292 291 291 291 292 291 290 288 287 287 286 287 287 287 286 286 285 285 284 284 284 284 284 284 283 283 282 281 283 283 284 283 283 283 283 283 283 283 282 280 282 282 282 282 282 282 282 282 283
289 289 289 290 289 290 289 289 289 288 288 289 289 289 288 288 288 289 288 288 287 287 286 286 286 287 286 286 285 285 284 284 284 283 282 283 283 282 282 282 282 283 283 282 282 282 282 281 282 282 282 282 282 281 281 281 281 281 282 282 282 282
290 291 290 290 288 288 288 288 288 287 287 287 287 288 288 287 287 287 288 287 287 287 286 286 286 286 286 285 285 284 284 283 283 283 283 282 283 283 282 282 282 281 282 282 282 282 282 282 282 281 280 281 281 281 281 280 280 281 280 281 282 281
291 290 290 289 289 288 287 287 288 289 288 288 287 287 287 287 287 287 287 287 287 287 286 286 285 285 285 284 284 283 283 283 282 282 281 282 282 282 282 282 282 281 281 281 281 281 280 281 281 280 280 280 280 280 280 280 279 280 280 280 280 280
291 291 291 290 288 288 288 288 287 287 288 288 287 287 287 286 287 287 287 287 287 286 286 285 285 284 284 283 283 283 283 282 282 281 282 281 281 281 281 281 281 281 281 280 281 280 280 281 281 281 281 281 281 280 280 280 280 280 280 280 280 280
292 291 291 289 289 289 288 288 288 288 288 287 287 287 286 287 287 287 287 287 286 286 285 285 284 283 283 283 283 283 282 282 281 282 281 281 280 280 280 280 280 280 280 280 279 279 280 280 280 284 288 288 283 282 280 280 280 279 279 280 279 279
292 291 291 290 289 289 289 289 288 288 287 287 287 287 286 287 287 287 287 286 286 285 284 284 283 283 283 282 282 282 281 281 281 281 281 280 280 280 279 280 279 279 279 279 279 279 279 280 281 287 287 288 288 283 281 280 280 279 279 279 278 278
291 291 291 291 290 290 289 289 289 288 288 288 288 287 286 287 287 287 286 286 285 284 283 283 283 282 282 282 282 281 280 280 280 280 280 280 279 279 279 279 278 278 278 278 278 278 278 278 284 286 287 287 287 288 283 280 279 279 279 278 278 278
292 293 292 291 291 290 290 290 289 289 289 288 288 287 286 286 286 285 285 284 284 283 283 283 283 282 282 281 281 280 280 280 280 279 279 279 278 278 278 277 278 277 277 277 277 277 277 277 284 285 286 286 287 287 284 279 278 278 278 278 277 277
294 293 293 293 292 291 290 289 290 289 288 287 286 286 286 285 285 285 284 284 284 283 283 283 282 282 281 280 280 280 280 280 279 278 277 277 276 277 276 275 277 277 277 277 277 277 277 276 283 285 285 285 286 286 283 278 277 277 277 277 277 277
293 292 290 291 291 289 288 288 288 287 287 286 286 285 285 285 284 284 284 284 283 283 282 282 282 281 281 280 280 280 279 279 277 277 276 276 276 276 276 276 275 276 275 276 275 276 276 278 283 284 284 285 285 285 282 277 278 277 276 277 276 276
293 293 293 291 289 289 289 289 287 287 286 286 286 285 285 285 284 284 284 284 283 282 282 282 281 281 280 280 279 279 278 278 277 277 275 274 275 274 274 274 275 275 274 274 274 275 275 276 282 283 284 284 284 284 279 276 276 276 276 276 276 276
294 292 289 289 290 289 289 288 287 287 286 285 286 285 285 284 284 284 284 284 283 282 282 282 281 280 280 279 278 278 277 276 275 275 274 275 275 275 274 274 273 273 273 273 274 275 276 275 279 281 283 283 284 282 274 274 273 273 275 275 276 276
289 288 291 289 289 289 289 288 288 287 286 286 285 285 284 284 284 284 284 284 283 282 282 281 281 280 278 278 278 277 276 275 274 274 274 275 275 274 273 272 273 273 273 273 274 276 276 276 278 280 282 282 283 282 275 273 272 272 273 273 276 277
291 290 289 289 289 288 289 288 288 287 287 286 285 285 284 284 284 284 284 284 283 282 281 280 280 279 278 277 277 276 275 275 274 273 272 273 273 272 273 273 274 274 274 274 275 278 276 275 276 279 281 282 282 280 274 274 271 272 275 276 276 276
288 288 289 289 290 289 288 288 288 287 287 286 285 285 284 284 285 284 284 282 281 280 279 279 278 277 277 276 275 275 275 274 273 272 272 272 272 272 273 274 275 275 275 275 275 275 275 275 274 276 280 281 281 281 278 274 273 274 275 276 276 275
290 290 290 290 289 288 288 288 288 287 287 286 285 285 285 285 284 283 282 281 279 278 277 276 276 276 275 275 275 274 273 273 273 272 272 272 273 273 274 274 274 274 274 275 275 274 274 274 273 273 278 280 280 280 279 275 275 276 276 276 275 275
286 286 286 285 287 287 287 287 287 287 286 286 285 286 285 283 282 281 280 278 277 276 275 275 274 274 274 273 273 273 272 271 272 273 273 273 274 273 273 273 273 273 274 274 274 273 273 273 275 272 276 278 279 279 280 277 277 278 277 275 275 275
285 285 285 284 286 286 287 287 287 286 286 285 286 283 282 281 280 279 278 276 275 274 274 273 273 273 273 272 273 273 272 272 272 273 273 273 273 273 272 272 272 272 272 272 272 272 272 271 270 275 272 276 278 279 279 279 278 279 277 275 274 274
283 283 281 283 285 286 286 287 287 286 285 285 281 280 279 279 278 277 276 275 274 273 273 272 272 272 272 272 272 272 272 272 272 273 273 273 272 272 271 271 271 271 271 270 271 271 271 270 268 272 275 274 277 278 278 279 279 279 277 276 275 275
284 282 281 282 284 285 286 287 287 285 285 282 279 279 278 278 277 276 275 274 273 272 272 271 271 271 270 271 272 272 272 272 272 271 271 272 272 271 271 270 270 270 270 270 270 270 270 268 267 267 272 275 276 277 278 278 278 278 278 276 275 276
280 281 281 280 281 283 283 285 286 285 284 278 279 278 278 277 276 275 274 273 272 271 271 271 270 270 271 272 273 273 273 272 272 272 271 271 271 271 270 270 269 269 269 269 269 268 267 266 266 268 271 274 275 276 276 277 277 277 277 277 276 277
280 279 279 280 278 278 279 279 280 280 277 277 278 278 277 276 276 275 273 272 271 271 271 271 271 271 271 272 272 272 272 272 272 272 271 270 270 270 269 269 269 268 268 267 266 265 264 264 265 268 271 273 274 275 275 275 275 276 276 275 275 276
278 278 277 278 276 276 276 276 276 276 277 277 277 276 276 276 275 274 272 271 271 271 271 271 271 271 271 270 270 270 270 270 271 271 271 270 270 270 269 268 268 268 267 266 263 262 262 263 265 268 271 273 274 274 275 275 275 274 274 273 274 274
275 275 276 275 274 273 274 273 274 275 276 276 276 276 276 275 273 273 271 271 271 271 271 271 271 271 270 270 270 270 270 270 269 270 270 269 268 269 269 268 268 267 264 263 263 263 264 265 267 269 275 275 276 275 274 274 274 274 273 275 276 272
274 274 274 272 271 271 272 271 272 273 274 274 275 275 275 274 272 271 271 271 271 271 271 270 270 270 269 268 268 268 268 270 272 270 269 269 271 274 274 273 266 266 264 263 262 265 266 267 269 274 275 276 276 276 276 276 276 275 274 275 274 271
272 273 272 271 270 270 271 271 271 272 272 273 274 275 275 273 273 272 271 271 271 271 270 270 269 268 268 268 268 269 269 270 272 275 275 274 274 276 277 276 276 275 273 269 264 267 275 273 274 274 275 275 275 275 275 274 274 275 274 273 268 263
272 273 272 271 270 270 270 270 269 270 271 272 273 273 273 273 273 272 272 271 270 270 269 269 268 268 267 267 268 269 270 270 269 270 274 275 276 277 277 275 275 275 274 274 272 269 268 272 274 274 274 274 274 274 273 273 273 273 272 270 269 261
272 271 270 270 270 269 269 269 268 268 269 270 271 271 272 272 272 272 270 270 269 269 268 268 267 267 266 266 266 267 269 269 268 267 268 270 275 277 275 274 274 274 273 274 274 274 272 272 273 273 273 273 273 272 271 271 272 272 271 268 261 258
270 270 270 269 269 270 269 269 268 268 269 268 269 270 270 271 271 270 270 269 269 268 268 268 267 267 266 266 267 268 268 269 269 268 268 268 268 269 269 272 271 272 273 273 272 272 272 272 273 272 272 272 272 271 270 269 266 270 269 265 258 258
270 269 269 270 269 269 269 269 268 267 266 266 267 268 268 268 268 267 267 267 267 268 268 268 268 267 266 265 266 266 266 266 266 266 267 267 267 266 265 263 263 268 271 267 268 270 271 272 272 271 271 271 270 269 269 266 258 257 258 259 258 258
270 270 268 268 268 268 268 269 267 267 266 266 267 267 267 267 267 266 266 267 267 267 267 266 266 266 265 265 265 265 265 265 264 265 266 266 266 265 264 262 262 261 266 269 269 270 270 271 271 270 270 270 269 267 266 256 256 256 256 257 256 256
Wind_Speed
4 4 4 3 3 4 5 5 5 3 4 5 6 8 7 8 6 6 5 7 7 7 8 9 8 7 7 6 8 7 8 8 7 6 6 6 5 6 5 6 5 5 5 5 6 5 5 5 5 4 5 5 6 4 4 3 3 5 5 4 4 3
4 4 5 5 5 5 4 5 5 4 4 5 6 6 6 6 7 7 8 6 7 8 7 6 7 7 8 8 9 8 7 7 7 7 6 6 5 5 5 5 6 5 6 5 5 5 5 6 5 5 4 5 5 4 5 4 4 5 5 5 4 4
3 2 1 1 2 2 4 5 6 6 4 5 7 9 7 7 7 7 7 7 7 9 9 8 8 8 8 8 7 8 7 6 7 6 6 5 5 5 6 6 6 5 5 6 5 6 5 5 5 4 4 5 4 4 4 4 5 5 5 5 6 4
3 2 2 2 3 4 5 4 5 6 6 6 6 7 7 7 6 7 7 6 7 8 8 8 7 8 7 8 7 8 7 6 6 6 6 6 4 4 6 6 5 5 6 7 6 5 5 5 4 3 4 5 5 5 4 5 6 6 5 4 6 6
5 5 5 5 6 5 5 5 6 6 6 6 5 7 6 6 7 6 7 7 7 8 8 8 7 7 8 9 7 8 8 7 6 5 7 7 5 4 5 6 6 6 6 6 5 5 5 4 4 4 5 5 5 5 5 4 5 5 5 6 6 6
4 4 4 5 5 5 6 5 5 5 6 6 5 7 6 5 6 6 7 7 7 7 8 8 7 8 8 9 8 9 7 7 6 5 6 6 6 7 4 4 5 5 6 6 5 5 5 5 5 5 5 5 4 4 4 4 4 4 4 4 5 6
6 7 6 6 6 5 5 5 5 6 5 5 6 5 5 6 5 7 7 8 9 7 8 8 8 9 8 9 8 8 7 7 7 5 6 7 6 5 6 4 4 5 5 6 5 5 6 5 4 5 5 4 3 3 3 3 3 4 4 4 4 5
5 5 5 6 6 7 6 5 5 5 5 5 4 7 5 5 5 7 8 8 9 8 8 8 7 8 9 9 8 8 7 7 6 6 4 5 7 5 4 6 4 5 6 5 5 5 5 4 5 5 4 4 4 4 4 4 4 4 4 4 4 4
8 8 7 6 5 5 6 6 5 5 5 5 4 5 6 6 7 7 8 7 8 8 8 8 8 8 8 8 8 7 6 6 6 6 6 4 6 6 6 4 6 4 6 5 5 5 4 5 4 4 4 4 4 3 4 4 4 4 4 4 4 5
8 8 8 7 7 6 5 5 6 7 7 7 5 5 6 6 7 7 7 8 8 8 8 7 7 8 7 7 6 6 6 6 5 5 5 5 6 6 5 6 6 5 6 5 5 4 4 5 5 4 4 3 3 3 4 3 3 4 4 4 4 4
10 10 9 9 7 8 8 7 6 5 5 5 6 6 7 7 7 7 8 7 8 8 7 7 6 6 7 7 7 7 6 6 6 5 5 5 6 5 5 5 5 6 6 5 5 5 4 5 4 3 3 4 4 4 4 3 4 4 5 5 5 4
9 10 9 8 10 9 8 8 8 8 8 7 7 7 7 8 8 9 8 9 8 8 7 7 7 7 7 7 8 7 7 7 6 6 6 6 5 5 5 6 6 6 5 5 5 4 4 4 3 5 9 7 4 4 3 3 3 3 4 5 6 5
9 9 10 11 11 12 11 10 8 7 7 8 9 9 8 7 9 9 9 9 8 8 8 8 7 7 8 7 7 6 7 7 6 6 6 6 5 6 5 6 7 6 4 5 4 4 4 3 3 9 9 10 10 5 3 3 4 4 4 4 4 6
12 13 15 14 13 12 11 11 10 10 11 10 10 10 8 8 8 9 9 8 8 8 8 8 8 8 7 7 7 7 6 6 7 6 6 6 6 5 5 7 6 5 4 4 4 4 4 4 6 9 9 9 9 7 4 3 4 4 4 4 4 5
17 17 15 10 12 13 13 12 11 13 13 12 10 8 9 9 8 8 8 7 8 8 8 8 9 8 8 7 7 7 7 7 7 6 6 6 4 4 6 5 5 5 3 4 4 4 3 3 6 9 9 9 9 9 6 3 3 3 3 4 4 5
10 10 11 12 11 9 7 9 10 7 5 7 7 9 8 9 8 8 8 8 8 8 8 8 9 9 8 7 7 7 7 7 7 5 4 5 4 5 5 4 5 4 4 4 4 4 4 4 7 10 10 9 9 8 7 2 3 3 3 4 5 4
11 7 8 11 12 10 10 9 7 7 8 8 9 8 9 8 9 8 9 9 8 8 8 8 8 9 8 8 7 7 7 7 6 6 4 5 5 5 5 4 4 4 4 4 4 5 5 4 9 9 9 9 9 9 6 3 3 3 3 4 4 5
15 17 16 7 8 10 10 10 8 9 9 7 9 9 9 10 10 9 9 10 10 10 9 9 9 9 9 8 7 8 8 7 7 7 5 5 4 3 4 3 4 4 4 4 4 5 6 4 9 9 9 9 9 9 4 3 3 3 3 4 4 4
8 7 6 8 10 11 12 10 10 10 9 10 9 10 9 10 11 11 11 11 11 10 10 9 10 10 9 8 9 9 8 8 7 5 4 6 5 5 4 4 4 3 4 4 4 5 4 3 7 8 9 10 11 6 3 3 3 3 3 4 4 4
6 6 10 10 10 10 9 10 11 10 10 10 9 10 10 10 12 11 11 11 11 10 9 9 9 10 9 9 10 9 7 5 4 4 4 7 7 6 4 4 5 4 3 4 4 4 4 3 5 8 9 10 11 8 4 3 3 3 3 3 4 4
10 9 8 10 11 11 11 12 12 12 12 11 11 11 11 12 11 11 12 11 9 9 8 8 8 8 10 9 8 8 9 7 7 5 5 5 5 5 4 4 6 5 4 3 4 5 4 2 4 8 10 10 10 7 2 4 3 4 4 5 5 5
8 7 10 13 14 11 13 12 12 12 12 11 10 12 13 13 13 10 7 7 8 8 8 7 8 7 9 9 8 7 7 6 7 6 6 5 5 6 5 5 5 6 4 4 4 4 3 3 4 6 10 9 9 10 5 3 4 6 7 7 7 8
10 13 14 10 9 11 12 12 12 13 12 12 13 15 15 11 9 9 9 8 8 7 7 6 7 9 6 6 9 8 7 5 7 7 6 7 6 6 6 6 5 6 5 4 3 3 3 4 5 5 8 8 8 9 7 2 4 5 6 6 7 7
4 3 3 5 9 10 11 12 13 12 12 12 16 15 9 9 9 9 9 9 8 7 7 7 6 6 7 7 8 9 7 4 5 6 6 6 7 8 7 6 5 6 5 3 2 3 4 4 4 3 6 7 8 8 9 5 4 6 6 7 6 7
5 4 5 5 8 9 10 12 12 11 10 14 11 6 8 8 9 9 9 8 8 7 8 7 8 8 7 7 7 9 9 6 6 6 6 8 7 8 8 7 6 6 5 3 2 3 2 2 2 5 3 6 7 8 8 10 7 11 6 6 7 8
4 5 4 5 7 8 9 12 12 11 12 12 6 8 8 9 9 9 9 8 8 8 7 7 7 7 6 7 8 7 9 8 6 6 6 6 7 8 8 7 7 6 5 5 3 1 1 1 1 4 4 4 7 7 8 9 10 11 7 6 6 8
6 5 4 4 7 8 9 9 13 12 12 7 9 10 11 10 10 10 10 9 8 8 7 7 7 7 7 7 8 9 8 8 8 8 5 6 5 6 7 5 6 6 5 5 3 2 0 1 1 2 4 4 5 7 8 9 10 10 12 6 5 7
4 5 5 3 4 5 5 6 7 12 8 8 9 10 11 12 12 11 11 9 8 8 8 9 7 6 6 7 5 6 7 9 8 8 8 6 6 6 7 7 6 6 6 5 4 2 1 1 1 2 3 4 3 5 7 9 10 10 11 11 8 13
5 4 4 5 2 3 3 4 2 4 7 9 8 10 11 11 11 10 9 9 8 7 8 10 9 8 7 7 6 5 5 6 6 7 7 7 7 6 6 7 7 7 6 6 5 3 2 1 1 2 3 3 2 3 4 5 5 9 9 7 6 7
4 4 4 5 2 2 4 4 4 6 8 8 9 9 10 10 10 11 10 10 9 9 9 8 8 10 10 8 8 9 8 6 5 7 8 9 9 9 7 7 7 7 7 7 6 4 2 1 1 2 2 2 3 3 3 4 4 4 4 5 5 5
3 4 4 3 2 3 4 4 4 6 8 8 9 10 11 11 9 9 9 8 8 8 7 7 8 9 10 10 6 4 5 8 7 6 3 1 3 4 8 8 7 6 6 7 7 6 3 3 2 2 3 3 4 4 3 4 4 3 3 6 10 6
4 4 4 3 2 3 4 4 4 4 5 7 8 9 11 10 9 8 9 8 8 8 8 7 7 7 8 9 9 8 4 1 4 2 4 4 4 6 6 7 4 7 6 6 5 5 4 4 2 2 4 4 5 6 7 6 7 7 5 8 11 7
4 4 4 4 3 4 4 5 5 5 6 7 8 9 10 11 10 9 8 9 9 9 8 8 8 7 8 9 9 8 7 6 4 7 6 5 6 7 10 10 12 12 9 7 2 2 7 3 1 1 3 3 4 5 5 5 5 7 7 9 6 5
4 5 5 4 4 4 4 4 4 4 4 5 6 6 8 9 10 11 10 9 7 8 8 6 9 11 11 10 9 7 8 8 8 5 5 6 8 10 11 10 10 9 8 8 8 5 1 3 3 1 2 3 3 3 4 3 5 7 8 9 7 3
3 3 4 4 4 4 4 4 4 4 5 6 6 7 9 9 9 8 7 7 7 8 8 7 11 12 12 13 11 8 8 9 9 9 7 5 7 10 8 8 8 8 7 8 8 7 5 4 2 3 3 2 2 2 2 3 5 7 8 9 6 4
3 3 4 4 4 5 4 5 5 5 5 5 6 6 7 7 7 6 7 9 9 10 9 9 8 10 11 12 10 8 9 8 8 8 9 10 7 4 3 5 5 6 6 7 7 5 4 3 3 4 4 2 1 2 2 3 2 6 9 8 3 2
4 4 4 5 4 4 5 6 5 4 4 4 4 5 5 5 5 4 5 8 6 6 7 7 9 9 9 11 10 8 8 8 6 7 9 11 12 10 9 7 2 2 7 4 4 4 4 3 4 5 3 2 2 2 4 5 3 2 3 4 3 3
3 3 3 4 4 5 6 7 5 6 6 6 6 6 6 6 5 5 5 5 7 6 6 6 7 7 8 10 10 8 7 6 7 8 7 6 5 6 7 5 4 3 1 4 4 3 2 3 5 4 3 3 4 3 4 2 0 1 1 2 2 1
Wind_Direction
193 187 196 194 194 177 169 168 171 171 155 158 155 151 147 143 134 125 117 126 130 133 134 133 126 124 122 120 119 118 120 125 127 123 126 113 110 115 118 110 105 98 84 87 82 73 71 64 61 63 63 66 73 55 64 32 53 53 34 8 26 6
193 187 180 177 174 167 162 164 158 164 149 138 127 117 124 127 129 132 127 121 124 121 113 110 121 126 126 126 123 121 125 132 128 127 120 125 117 113 113 111 109 103 97 86 92 82 72 66 52 55 61 63 67 62 52 20 40 44 31 356 4 5
201 188 177 153 123 130 154 160 166 161 151 144 148 143 144 137 135 130 129 128 127 129 129 128 125 117 114 112 118 119 123 123 119 118 125 113 116 124 114 109 107 107 107 101 84 82 77 71 58 47 65 65 60 46 44 29 33 29 9 8 349 358
174 129 93 103 121 140 157 160 156 162 164 162 152 143 148 143 139 135 132 127 130 127 124 118 114 118 118 120 122 120 122 120 120 129 119 116 124 121 118 114 118 111 105 95 92 89 85 80 73 53 60 53 42 29 31 26 19 14 356 0 342 336
173 167 164 165 168 169 164 167 172 171 165 160 166 151 155 151 141 135 131 127 126 124 122 122 125 125 126 123 126 123 123 123 122 126 125 125 123 107 119 128 120 114 108 103 102 96 85 79 76 60 62 55 51 34 17 20 21 9 350 344 332 329
159 153 166 169 169 172 176 173 164 166 169 167 159 157 148 137 134 131 125 121 120 127 126 128 131 128 131 128 131 127 127 128 127 131 124 127 127 122 119 113 116 110 107 101 93 83 80 66 58 60 61 62 52 44 21 8 10 2 347 332 324 327
177 186 181 179 178 179 176 172 170 167 165 161 162 150 147 137 135 131 129 131 132 134 132 135 138 135 132 129 130 131 131 135 136 137 136 131 123 122 113 96 98 102 89 87 85 78 69 67 64 59 49 48 53 51 32 12 4 353 341 327 316 315
190 188 192 188 188 181 176 176 169 167 158 165 154 146 144 143 136 135 135 139 136 139 138 140 137 137 136 134 134 137 141 142 139 137 132 132 122 111 104 110 91 94 92 85 81 82 83 76 71 67 58 45 34 31 24 14 0 347 335 323 316 311
201 200 198 198 186 185 181 173 169 165 161 159 160 155 148 150 144 143 140 144 140 141 147 145 144 141 140 140 140 139 138 137 137 133 130 126 118 117 111 99 94 72 87 82 80 74 78 77 71 66 53 42 37 34 21 4 353 336 325 309 308 308
197 198 199 194 193 186 183 181 174 171 169 167 163 154 148 149 145 146 144 145 145 148 150 146 141 141 140 136 136 137 132 130 127 122 121 116 105 102 100 96 93 85 78 79 81 78 79 75 65 53 47 41 37 30 15 10 345 332 320 311 308 308
200 200 197 197 184 188 186 178 178 171 167 161 160 157 162 155 148 149 149 148 152 154 148 142 139 134 136 138 136 134 134 129 124 118 111 103 99 91 89 86 90 92 82 71 74 73 67 72 65 56 41 40 27 37 17 0 345 332 323 321 322 322
198 200 197 194 194 189 185 183 183 179 171 167 165 166 167 154 157 154 157 159 157 150 148 144 141 144 142 141 141 140 134 129 126 119 108 99 96 93 90 86 79 79 83 83 72 72 71 67 60 30 36 33 31 23 12 357 335 329 325 322 322 322
203 198 199 200 195 194 188 187 179 169 170 174 173 172 166 163 161 162 162 160 155 150 145 145 148 146 148 146 137 136 133 130 126 115 107 99 90 90 89 91 83 78 78 86 87 78 73 61 39 35 33 27 21 22 9 3 344 338 329 321 316 318
202 203 204 200 195 190 187 182 179 176 184 176 177 172 164 165 164 162 163 156 151 150 151 151 149 148 148 145 143 137 132 126 120 113 109 105 96 92 94 84 90 90 90 91 89 79 67 51 29 34 31 25 20 13 33 30 351 328 321 314 316 313
206 206 204 194 194 193 195 181 172 189 184 178 174 149 163 167 164 160 155 153 153 155 155 156 156 152 149 147 139 136 132 125 115 114 112 107 112 101 88 97 97 96 97 94 88 77 60 57 21 34 31 24 20 16 46 22 342 325 311 313 311 310
216 212 205 202 200 196 181 185 188 178 155 150 145 160 163 160 162 159 157 156 161 161 161 161 157 152 148 142 139 136 131 124 120 113 109 113 104 101 103 98 99 103 94 89 87 78 64 47 21 32 27 23 17 18 35 359 343 325 316 311 310 307
210 202 196 201 191 177 167 179 169 150 149 156 158 164 161 165 160 163 164 164 163 164 166 164 158 149 146 144 140 134 129 125 121 117 119 117 121 121 119 118 106 96 93 82 79 78 59 34 27 29 24 21 15 19 26 4 343 331 314 305 296 294
201 200 205 170 155 173 177 176 159 158 163 155 162 164 170 166 168 168 166 170 172 172 171 164 158 152 148 146 141 137 135 132 135 135 134 115 106 102 109 88 89 92 85 84 81 75 60 27 27 25 23 17 14 19 23 6 350 332 313 300 290 289
208 198 154 166 174 169 180 167 161 158 153 165 172 170 172 170 175 177 177 176 173 172 171 169 159 155 152 150 145 144 142 139 134 132 132 118 120 116 103 107 96 94 90 83 82 78 71 43 17 21 20 18 12 23 20 359 350 320 301 294 288 286
171 165 169 170 179 178 161 160 161 157 162 170 169 171 175 180 185 180 180 180 175 170 168 167 161 155 155 154 154 149 141 127 114 132 146 134 134 117 124 122 101 81 79 78 75 81 77 54 13 19 19 19 13 16 24 350 332 311 289 284 290 304
175 169 160 164 176 177 164 161 160 162 172 172 174 177 181 190 186 182 183 179 169 164 159 158 158 158 155 154 151 147 144 146 143 135 116 113 111 118 120 104 100 93 76 73 73 67 76 69 13 14 20 16 12 14 39 354 325 306 315 328 330 333
127 150 169 183 189 164 162 159 166 173 174 177 172 182 192 192 189 180 165 154 155 155 153 154 154 157 156 148 138 134 134 132 129 133 124 117 118 118 108 100 101 102 88 72 69 60 84 71 22 8 13 12 9 2 5 345 332 334 338 342 334 328
173 181 190 185 157 156 160 162 164 179 180 175 179 197 196 184 165 157 155 148 146 147 146 145 154 151 142 139 139 131 126 133 135 133 129 127 121 112 108 107 109 103 96 82 76 67 36 46 29 351 6 6 4 355 355 320 334 328 334 329 322 322
157 139 130 140 155 157 162 166 177 180 178 180 198 198 167 153 151 144 142 146 145 142 141 143 134 133 134 131 131 129 124 120 124 130 132 128 125 118 114 117 112 114 109 103 98 63 42 18 17 355 356 359 354 349 350 345 337 339 335 323 311 315
155 159 155 146 155 160 166 169 177 182 181 197 198 145 140 137 134 136 136 137 140 144 143 141 141 139 138 136 137 134 133 138 131 134 134 131 125 119 120 110 117 115 121 122 80 58 40 359 354 352 3 346 344 344 348 347 344 340 337 321 321 325
132 134 137 148 157 163 169 174 180 183 188 196 135 131 126 131 133 134 136 141 143 141 143 142 136 133 135 140 139 138 140 142 140 137 144 144 135 131 123 120 127 128 127 128 97 53 14 344 353 320 336 344 342 344 344 341 340 337 333 331 323 323
151 138 143 160 165 171 176 183 181 181 188 166 137 143 144 140 140 142 147 150 152 149 144 136 137 140 142 149 150 149 150 144 150 137 147 144 139 134 132 140 155 144 135 128 142 156 297 312 274 275 289 332 340 341 339 339 338 338 338 332 310 305
115 136 147 161 176 171 179 186 183 183 177 137 149 145 145 145 146 151 153 153 153 152 147 139 138 142 150 154 163 162 158 158 157 151 146 148 141 142 140 148 154 136 137 144 166 170 202 238 235 255 265 263 328 336 332 337 339 340 339 335 324 323
127 142 147 161 178 156 157 164 142 136 126 150 144 146 145 150 151 149 150 153 151 151 157 153 157 158 154 143 146 143 151 156 154 148 151 154 149 145 147 152 146 143 149 159 168 184 206 246 257 255 265 260 270 287 311 329 330 337 336 331 317 327
143 150 153 165 166 137 138 133 125 133 139 141 146 143 144 149 157 157 161 161 162 166 168 165 158 156 148 159 160 152 146 163 169 165 170 169 167 155 163 157 156 161 160 159 164 165 192 242 261 258 249 293 289 288 311 331 322 323 335 328 319 340
136 148 152 148 126 123 128 120 119 140 144 146 147 151 152 157 156 154 155 161 161 170 171 167 167 169 159 132 151 155 136 148 165 169 143 80 108 176 158 156 155 156 157 144 151 152 178 190 214 249 322 319 333 341 345 330 327 333 325 333 344 360
137 146 147 137 130 123 122 112 115 131 140 146 154 157 158 155 153 155 168 172 176 174 170 169 167 165 158 149 140 130 119 187 159 144 142 157 194 158 139 140 151 161 149 144 180 175 162 175 209 315 339 330 347 351 351 345 350 350 355 360 10 11
130 138 143 149 137 139 141 145 150 149 155 160 164 168 164 158 162 172 175 179 188 182 174 165 164 166 152 152 143 149 145 133 150 146 143 158 178 178 155 131 135 146 150 141 153 178 138 135 100 7 320 3 357 356 348 356 5 10 18 17 44 12
158 167 168 161 162 159 148 146 158 156 158 161 166 168 165 173 172 180 186 184 178 170 175 172 163 148 152 151 159 160 156 150 139 133 148 155 164 157 143 139 139 139 140 148 148 146 126 139 153 131 39 36 349 360 348 15 28 33 37 32 57 65
178 167 147 153 157 155 157 160 175 163 167 170 173 170 173 183 185 182 178 177 171 172 171 169 171 164 166 162 167 172 172 165 163 154 150 160 175 159 142 151 143 147 151 146 132 122 133 144 130 88 74 45 9 13 6 44 53 56 53 56 48 72
156 153 158 161 170 169 169 185 189 183 182 175 178 179 186 188 192 186 179 182 182 177 180 180 176 172 172 165 169 175 177 182 175 166 156 152 156 149 140 151 131 153 156 144 129 115 119 117 101 85 77 66 54 44 43 75 58 62 54 73 88 68
155 160 167 167 164 173 189 208 198 177 170 172 173 176 185 192 193 183 177 177 181 193 189 182 149 167 171 171 184 183 185 182 179 167 170 172 174 177 176 175 164 174 164 132 104 107 123 113 97 91 94 83 72 65 96 83 42 27 356 27 36 49
157 164 155 159 177 193 206 221 190 174 171 173 172 180 190 191 186 178 177 178 185 188 188 181 179 180 178 183 186 180 180 171 169 178 185 176 164 163 156 148 167 191 323 131 124 137 130 105 100 102 102 97 82 72 120 94 359 67 30 45 353 26